This is the latest recevied weather packets stored in our database for station/object F5GJJ-13. If no packets are shown the sender has not sent any weather packets the latest 10 day(s).
| Time | Temp. | Humidity | Pressure | Rain* | Wind** | Luminosity | Snow |
|---|---|---|---|---|---|---|---|
| 1778155037 | 21.11° C | 56% | 1013.6 hPa | 0 mm | - | - | - |
| 1778154961 | 20.56° C | 56% | 1013.6 hPa | 0 mm | - | - | - |
| 1778154075 | 20.56° C | 59% | 1013.6 hPa | 0 mm | - | - | - |
| 1778153160 | 20° C | 60% | 1014.6 hPa | 0 mm | - | - | - |
| 1778153116 | 20° C | 61% | 1014.6 hPa | 0 mm | - | - | - |
| 1778152155 | 20° C | 58% | 1014.6 hPa | 0 mm | - | - | - |
| 1778151363 | 19.44° C | 64% | 1014.6 hPa | 0 mm | - | - | - |
| 1778151197 | 20° C | 63% | 1014.6 hPa | 0 mm | - | - | - |
| 1778150236 | 20.56° C | 67% | 1014.6 hPa | 0 mm | - | - | - |
| 1778149561 | 20° C | 69% | 1014.6 hPa | 0 mm | - | - | - |
| 1778149275 | 19.44° C | 70% | 1014.6 hPa | 0 mm | - | - | - |
| 1778148316 | 18.33° C | 73% | 1014.6 hPa | 0 mm | - | - | - |
| 1778147762 | 18.33° C | 74% | 1014.6 hPa | 0 mm | - | - | - |
| 1778147356 | 17.78° C | 75% | 1014.6 hPa | 0 mm | - | - | - |
| 1778146396 | 16.67° C | 78% | 1014.6 hPa | 0 mm | - | - | - |
| 1778145960 | 16.67° C | 79% | 1014.6 hPa | 0 mm | - | - | - |
| 1778145436 | 16.11° C | 79% | 1014.6 hPa | 0 mm | - | - | - |
| 1778144475 | 16.11° C | 81% | 1014.6 hPa | 0 mm | - | - | - |
| 1778144162 | 15.56° C | 81% | 1014.6 hPa | 0 mm | - | - | - |
| 1778143515 | 15.56° C | 81% | 1014.6 hPa | 0 mm | - | - | - |
| 1778142555 | 15° C | 82% | 1013.6 hPa | 0 mm | - | - | - |
| 1778142361 | 15° C | 82% | 1013.6 hPa | 0 mm | - | - | - |
| 1778141595 | 14.44° C | 83% | 1014.6 hPa | 0 mm | - | - | - |
| 1778140636 | 14.44° C | 84% | 1014.6 hPa | 0 mm | - | - | - |
| 1778140563 | 14.44° C | 84% | 1014.6 hPa | 0 mm | - | - | - |
* Rain latest hour (hover to see other rain measurements)
** Current wind speed in m/s (hover to see current wind gust speed)